Location: Liscomb Game Sanctuary
(45.1633°N, 62.5575°W)
Time: 17:47:10
(UTC-03:00)

Cosmos 44 Rocket - Pass Details

Date: 22 February 2018
Orbit: 640 x 750 km, 65.1° (Epoch: 23 June)

Event Time Altitude Azimuth Distance (km) Brightness Sun altitude
Rises 19:00:01 0° 322° (NW) 3,107 7.2 -13.4°
Reaches altitude 10° 19:02:22 10° 319° (NW) 2,201 6.5 -13.8°
Maximum altitude 19:07:20 62° 239° (WSW) 818 3.9 -14.7°
Drops below altitude 10° 19:12:24 10° 160° (SSE) 2,244 5.7 -15.6°
Sets 19:14:49 0° 157° (SSE) 3,172 6.4 -16.0°
